Theologos P . — SZNB — position and weather

sailwx.info

Track history (hours):
 
Tides and Currents Weather Stations Pressure Air Temp Water Temp Dewpoint Dewpoint Depression Visibility Wind Speed Wind Dir Waves Ship Positions

Theologos P .

Last reported at 2014-Oct-29 14:33 UTC. Time now 2014-Nov-01 04:11 UTC.
Position N 37°57' E 023°34'.

Length 118 m; draft 4.5 m.

Type: Passenger vessel. MMSI: 240521000.

Date/timePositionNaut miles runAvg speedWind from/ knotsBaromVisibWave heightAir tempDewpointWater temp
2014-Oct-29 14:33N 37°57' E 023°34'1313.0
2014-Oct-29 13:34N 37°46' E 023°42'1717.2
2014-Oct-29 12:34N 37°37' E 024°00'1918.1
2014-Oct-29 11:32N 37°55' E 024°05'7 5.6
2014-Oct-29 10:20N 38°01' E 024°01'1316.8
2014-Oct-29 09:33N 37°57' E 024°16'1918.8
2014-Oct-29 08:33N 37°53' E 024°39'1010.3
2014-Oct-29 07:33N 37°46' E 024°49'1919.0
2014-Oct-29 06:33N 37°33' E 025°07'1111.4
2014-Oct-29 05:33N 37°28' E 025°20'0 0.0
2014-Oct-29 04:33N 37°28' E 025°20'0 0.0
2014-Oct-29 03:33N 37°28' E 025°20'0 0.0
2014-Oct-29 02:33N 37°28' E 025°20'0 0.0
2014-Oct-29 01:33N 37°28' E 025°20'0 0.0
2014-Oct-29 00:33N 37°28' E 025°20'0 0.0
2014-Oct-28 23:33N 37°28' E 025°20'0 0.0
2014-Oct-28 22:33N 37°28' E 025°20'0 0.0
2014-Oct-28 21:33N 37°28' E 025°20'0 0.0
2014-Oct-28 20:33N 37°28' E 025°20'9 9.2
2014-Oct-28 19:33N 37°32' E 025°09'1515.6
2014-Oct-28 18:33N 37°42' E 024°54'1511.7
2014-Oct-28 17:18N 37°52' E 024°40'2118.6
2014-Oct-28 16:11N 37°58' E 024°15'10 5.8
2014-Oct-28 14:33N 38°01' E 024°04'1918.8
2014-Oct-28 13:33N 37°55' E 024°26'2814.0
2014-Oct-28 11:33N 37°40' E 024°56'1313.3
2014-Oct-28 10:33N 37°32' E 025°10'9 8.8
2014-Oct-28 09:33N 37°28' E 025°20'0 0.0
2014-Oct-28 08:33N 37°28' E 025°20'0 0.0
2014-Oct-28 07:33N 37°28' E 025°20'0 0.0
2014-Oct-28 06:33N 37°28' E 025°20'0 0.0
2014-Oct-28 05:33N 37°28' E 025°20'0 0.0
2014-Oct-28 04:33N 37°28' E 025°20'0 0.0
2014-Oct-28 03:33N 37°28' E 025°20'0 0.0
2014-Oct-28 02:33N 37°28' E 025°20'0 0.0
2014-Oct-28 01:33N 37°28' E 025°20'0 0.0
2014-Oct-28 00:33N 37°28' E 025°20'0 0.0
2014-Oct-27 23:33N 37°28' E 025°20'0 0.0
2014-Oct-27 22:33N 37°28' E 025°20'0 0.0
2014-Oct-27 21:33N 37°28' E 025°20'0 0.0
2014-Oct-27 20:33N 37°28' E 025°20'9 9.3
2014-Oct-27 19:33N 37°32' E 025°09'1616.3
2014-Oct-27 18:33N 37°43' E 024°53'1412.0
2014-Oct-27 17:24N 37°52' E 024°40'2117.6
2014-Oct-27 16:13N 37°58' E 024°15'12 2.0
2014-Oct-27 10:15N 38°01' E 024°01'1418.3
2014-Oct-27 09:29N 37°57' E 024°17'2914.4
2014-Oct-27 07:30N 37°45' E 024°50'1818.5
2014-Oct-27 06:33N 37°33' E 025°07'1111.4
2014-Oct-27 05:33N 37°28' E 025°20'0 0.0
2014-Oct-27 04:33N 37°28' E 025°20'0 0.0
2014-Oct-27 03:33N 37°28' E 025°20'0 0.0
2014-Oct-27 02:33N 37°28' E 025°20'0 0.0
2014-Oct-27 01:33N 37°28' E 025°20'0 0.0
2014-Oct-27 00:33N 37°28' E 025°20'0 0.0
2014-Oct-26 23:33N 37°28' E 025°20'0 0.0
2014-Oct-26 22:33N 37°28' E 025°20'0 0.0
2014-Oct-26 21:33N 37°28' E 025°20'0 0.0
2014-Oct-26 20:33N 37°28' E 025°20'9 9.3
2014-Oct-26 19:33N 37°32' E 025°09'1616.4
2014-Oct-26 18:33N 37°43' E 024°53'1511.9
2014-Oct-26 17:20N 37°52' E 024°39'2017.5
2014-Oct-26 16:11N 37°58' E 024°15'8 4.9
2014-Oct-26 14:33N 38°00' E 024°05'1918.9
2014-Oct-26 13:33N 37°54' E 024°28'2713.3
2014-Oct-26 11:33N 37°40' E 024°56'1413.7
2014-Oct-26 10:33N 37°31' E 025°10'9 8.6
2014-Oct-26 09:33N 37°28' E 025°20'0 0.0
2014-Oct-26 08:33N 37°28' E 025°20'0 0.0
2014-Oct-26 07:33N 37°28' E 025°20'0 0.0
2014-Oct-26 06:33N 37°28' E 025°20'0 0.0
2014-Oct-26 05:33N 37°28' E 025°20'0 0.0
2014-Oct-26 04:33N 37°28' E 025°20'0 0.0
2014-Oct-26 03:33N 37°28' E 025°20'0 0.0
2014-Oct-26 02:33N 37°28' E 025°20'0 0.0
2014-Oct-26 01:33N 37°28' E 025°20'0 0.0
2014-Oct-26 00:33N 37°28' E 025°20'0 0.0
2014-Oct-25 23:33N 37°28' E 025°20'0 0.0
2014-Oct-25 22:33N 37°28' E 025°20'0 0.0
2014-Oct-25 21:33N 37°28' E 025°20'0 0.0
2014-Oct-25 20:33N 37°28' E 025°20'0 0.0
2014-Oct-25 19:33N 37°28' E 025°20'9 9.3
2014-Oct-25 18:34N 37°32' E 025°09'1515.4
2014-Oct-25 17:33N 37°42' E 024°54'1612.4
2014-Oct-25 16:15N 37°52' E 024°39'2018.7
2014-Oct-25 15:13N 37°58' E 024°15'3 1.7
2014-Oct-25 13:24N 37°59' E 024°11'1518.0
2014-Oct-25 12:33N 37°54' E 024°30'2814.0
2014-Oct-25 10:33N 37°37' E 024°58'1111.5
2014-Oct-25 09:34N 37°31' E 025°10'8 8.2
2014-Oct-25 08:33N 37°28' E 025°20'0 0.0
2014-Oct-25 07:33N 37°28' E 025°20'0 0.0
2014-Oct-25 06:33N 37°28' E 025°20'0 0.0
2014-Oct-25 05:33N 37°28' E 025°20'0 0.0
2014-Oct-25 04:33N 37°28' E 025°20'0 0.0
2014-Oct-25 03:33N 37°28' E 025°20'0 0.0
2014-Oct-25 02:33N 37°28' E 025°20'0 0.0
2014-Oct-25 01:33N 37°28' E 025°20'0 0.0
2014-Oct-25 00:33N 37°28' E 025°20'0 0.0
2014-Oct-24 23:33N 37°28' E 025°20'0 0.0
2014-Oct-24 22:33N 37°28' E 025°20'0 0.0
2014-Oct-24 21:33N 37°28' E 025°20'0 0.0
2014-Oct-24 20:33N 37°28' E 025°20'8 7.8
2014-Oct-24 19:33N 37°31' E 025°11'9 8.7
2014-Oct-24 18:34N 37°35' E 025°01'1817.3
2014-Oct-24 17:32N 37°48' E 024°46'10 9.3
2014-Oct-24 16:28N 37°53' E 024°35'1717.2
2014-Oct-24 15:28N 37°58' E 024°14'11 1.8
2014-Oct-24 09:18N 38°01' E 024°01'1317.2
2014-Oct-24 08:33N 37°57' E 024°16'3114.5
2014-Oct-24 06:26N 37°43' E 024°51'1618.7
2014-Oct-24 05:33N 37°33' E 025°07'1111.2
2014-Oct-24 04:33N 37°28' E 025°20'0 0.0
2014-Oct-24 03:33N 37°28' E 025°20'0 0.0
2014-Oct-24 02:33N 37°28' E 025°20'0 0.0
2014-Oct-24 01:33N 37°28' E 025°20'0 0.0
2014-Oct-24 00:33N 37°28' E 025°20'0 0.0
2014-Oct-23 23:33N 37°28' E 025°20'0 0.0
2014-Oct-23 22:33N 37°28' E 025°20'0 0.0
2014-Oct-23 21:33N 37°28' E 025°20'0 0.0
2014-Oct-23 20:33N 37°28' E 025°20'0 0.0
2014-Oct-23 19:33N 37°28' E 025°20'9 9.0
2014-Oct-23 18:33N 37°32' E 025°10'1717.2
2014-Oct-23 17:34N 37°42' E 024°52'1711.8
2014-Oct-23 16:07N 37°52' E 024°35'1818.2
2014-Oct-23 15:09N 37°58' E 024°13'11 1.9
2014-Oct-23 09:34N 38°01' E 024°01'2017.4
2014-Oct-23 08:23N 37°54' E 024°25'2412.6
2014-Oct-23 06:31N 37°43' E 024°51'1718.2
2014-Oct-23 05:33N 37°32' E 025°09'10 9.7
2014-Oct-23 04:33N 37°28' E 025°20'0 0.0
2014-Oct-23 03:33N 37°28' E 025°20'0 0.0
2014-Oct-23 02:33N 37°28' E 025°20'0 0.0
2014-Oct-23 01:33N 37°28' E 025°20'0 0.0
2014-Oct-23 00:33N 37°28' E 025°20'0 0.0
2014-Oct-22 23:33N 37°28' E 025°20'0 0.0
2014-Oct-22 22:33N 37°28' E 025°20'0 0.0
2014-Oct-22 21:33N 37°28' E 025°20'0 0.0
2014-Oct-22 20:33N 37°28' E 025°20'0 0.0
2014-Oct-22 19:33N 37°28' E 025°20'9 9.0
2014-Oct-22 18:33N 37°32' E 025°10'1817.4
2014-Oct-22 17:31N 37°43' E 024°52'1411.5
2014-Oct-22 16:20N 37°52' E 024°39'31 4.5
2014-Oct-22 09:20N 38°01' E 024°01'4815.5
2014-Oct-22 06:16N 37°41' E 024°55'1318.4
2014-Oct-22 05:33N 37°32' E 025°08'1010.3
2014-Oct-22 04:33N 37°28' E 025°20'0 0.0
2014-Oct-22 03:33N 37°28' E 025°20'0 0.0
2014-Oct-22 02:33N 37°28' E 025°20'0 0.0
2014-Oct-22 01:33N 37°28' E 025°20'0 0.0
2014-Oct-22 00:33N 37°28' E 025°20'0 0.0
2014-Oct-21 23:33N 37°28' E 025°20'0 0.0
2014-Oct-21 22:33N 37°28' E 025°20'0 0.0
2014-Oct-21 21:33N 37°28' E 025°20'0 0.0
2014-Oct-21 20:33N 37°28' E 025°20'0 0.0
2014-Oct-21 19:33N 37°28' E 025°20'9 9.3
2014-Oct-21 18:34N 37°32' E 025°09'1615.9
2014-Oct-21 17:33N 37°42' E 024°53'1312.0
2014-Oct-21 16:29N 37°52' E 024°43'1818.3
2014-Oct-21 15:29N 37°56' E 024°21'17 3.8
2014-Oct-21 11:09N 38°01' E 024°01'0 0.1
2014-Oct-21 09:17N 38°01' E 024°01'1417.6
2014-Oct-21 08:29N 37°57' E 024°18'1818.5
2014-Oct-21 07:31N 37°53' E 024°40'1111.5
2014-Oct-21 06:32N 37°45' E 024°50'1818.7
2014-Oct-21 05:33N 37°33' E 025°07'1111.1
2014-Oct-21 04:33N 37°28' E 025°20'0 0.0
2014-Oct-21 03:33N 37°28' E 025°20'0 0.0
2014-Oct-21 02:33N 37°28' E 025°20'0 0.0
2014-Oct-21 01:33N 37°28' E 025°20'0 0.0
2014-Oct-21 00:33N 37°28' E 025°20'0 0.0
2014-Oct-20 23:33N 37°28' E 025°20'0 0.0
2014-Oct-20 22:33N 37°28' E 025°20'0 0.0
2014-Oct-20 21:33N 37°28' E 025°20'0 0.0
2014-Oct-20 20:33N 37°28' E 025°20'0 0.0
2014-Oct-20 19:33N 37°28' E 025°20'9 9.3
2014-Oct-20 18:33N 37°32' E 025°09'1916.2
2014-Oct-20 17:23N 37°44' E 024°51'1010.9
2014-Oct-20 16:28N 37°52' E 024°43'34 4.8
2014-Oct-20 09:19N 38°01' E 024°01'1818.6
2014-Oct-20 08:20N 37°56' E 024°23'2513.5
2014-Oct-20 06:30N 37°44' E 024°51'1718.4
2014-Oct-20 05:33N 37°33' E 025°07'1111.1
2014-Oct-20 04:33N 37°28' E 025°20'0 0.0
2014-Oct-20 03:33N 37°28' E 025°20'0 0.0
2014-Oct-20 02:24N 37°28' E 025°20'0 0.0
2014-Oct-20 01:31N 37°28' E 025°20'0 0.0
2014-Oct-20 00:28N 37°28' E 025°20'0 0.0
2014-Oct-19 23:32N 37°28' E 025°20'0 0.0
2014-Oct-19 22:33N 37°28' E 025°20'0 0.0
2014-Oct-19 21:33N 37°28' E 025°20'0 0.0
2014-Oct-19 20:33N 37°28' E 025°20'0 0.0
2014-Oct-19 19:33N 37°28' E 025°20'9 9.3
2014-Oct-19 18:33N 37°32' E 025°09'3514.4
2014-Oct-19 16:08N 37°53' E 024°34'1717.8
2014-Oct-19 15:11N 37°58' E 024°13'  
Track history (hours):
 
Tides and Currents Weather Stations Pressure Air Temp Water Temp Dewpoint Dewpoint Depression Visibility Wind Speed Wind Dir Waves Ship Positions

Theologos P .

Last reported at 2014-Oct-29 14:33 UTC. Time now 2014-Nov-01 04:11 UTC.
Position N 37°57' E 023°34'.

Length 118 m; draft 4.5 m.

Type: Passenger vessel. MMSI: 240521000.

Date/timePositionNaut miles runAvg speedWind from/ knotsBaromVisibWave heightAir tempDewpointWater temp
2014-Oct-29 14:33N 37°57' E 023°34'1313.0
2014-Oct-29 13:34N 37°46' E 023°42'1717.2
2014-Oct-29 12:34N 37°37' E 024°00'1918.1
2014-Oct-29 11:32N 37°55' E 024°05'7 5.6
2014-Oct-29 10:20N 38°01' E 024°01'1316.8
2014-Oct-29 09:33N 37°57' E 024°16'1918.8
2014-Oct-29 08:33N 37°53' E 024°39'1010.3
2014-Oct-29 07:33N 37°46' E 024°49'1919.0
2014-Oct-29 06:33N 37°33' E 025°07'1111.4
2014-Oct-29 05:33N 37°28' E 025°20'0 0.0
2014-Oct-29 04:33N 37°28' E 025°20'0 0.0
2014-Oct-29 03:33N 37°28' E 025°20'0 0.0
2014-Oct-29 02:33N 37°28' E 025°20'0 0.0
2014-Oct-29 01:33N 37°28' E 025°20'0 0.0
2014-Oct-29 00:33N 37°28' E 025°20'0 0.0
2014-Oct-28 23:33N 37°28' E 025°20'0 0.0
2014-Oct-28 22:33N 37°28' E 025°20'0 0.0
2014-Oct-28 21:33N 37°28' E 025°20'0 0.0
2014-Oct-28 20:33N 37°28' E 025°20'9 9.2
2014-Oct-28 19:33N 37°32' E 025°09'1515.6
2014-Oct-28 18:33N 37°42' E 024°54'1511.7
2014-Oct-28 17:18N 37°52' E 024°40'2118.6
2014-Oct-28 16:11N 37°58' E 024°15'10 5.8
2014-Oct-28 14:33N 38°01' E 024°04'1918.8
2014-Oct-28 13:33N 37°55' E 024°26'2814.0
2014-Oct-28 11:33N 37°40' E 024°56'1313.3
2014-Oct-28 10:33N 37°32' E 025°10'9 8.8
2014-Oct-28 09:33N 37°28' E 025°20'0 0.0
2014-Oct-28 08:33N 37°28' E 025°20'0 0.0
2014-Oct-28 07:33N 37°28' E 025°20'0 0.0
2014-Oct-28 06:33N 37°28' E 025°20'0 0.0
2014-Oct-28 05:33N 37°28' E 025°20'0 0.0
2014-Oct-28 04:33N 37°28' E 025°20'0 0.0
2014-Oct-28 03:33N 37°28' E 025°20'0 0.0
2014-Oct-28 02:33N 37°28' E 025°20'0 0.0
2014-Oct-28 01:33N 37°28' E 025°20'0 0.0
2014-Oct-28 00:33N 37°28' E 025°20'0 0.0
2014-Oct-27 23:33N 37°28' E 025°20'0 0.0
2014-Oct-27 22:33N 37°28' E 025°20'0 0.0
2014-Oct-27 21:33N 37°28' E 025°20'0 0.0
2014-Oct-27 20:33N 37°28' E 025°20'9 9.3
2014-Oct-27 19:33N 37°32' E 025°09'1616.3
2014-Oct-27 18:33N 37°43' E 024°53'1412.0
2014-Oct-27 17:24N 37°52' E 024°40'2117.6
2014-Oct-27 16:13N 37°58' E 024°15'12 2.0
2014-Oct-27 10:15N 38°01' E 024°01'1418.3
2014-Oct-27 09:29N 37°57' E 024°17'2914.4
2014-Oct-27 07:30N 37°45' E 024°50'1818.5
2014-Oct-27 06:33N 37°33' E 025°07'1111.4
2014-Oct-27 05:33N 37°28' E 025°20'0 0.0
2014-Oct-27 04:33N 37°28' E 025°20'0 0.0
2014-Oct-27 03:33N 37°28' E 025°20'0 0.0
2014-Oct-27 02:33N 37°28' E 025°20'0 0.0
2014-Oct-27 01:33N 37°28' E 025°20'0 0.0
2014-Oct-27 00:33N 37°28' E 025°20'0 0.0
2014-Oct-26 23:33N 37°28' E 025°20'0 0.0
2014-Oct-26 22:33N 37°28' E 025°20'0 0.0
2014-Oct-26 21:33N 37°28' E 025°20'0 0.0
2014-Oct-26 20:33N 37°28' E 025°20'9 9.3
2014-Oct-26 19:33N 37°32' E 025°09'1616.4
2014-Oct-26 18:33N 37°43' E 024°53'1511.9
2014-Oct-26 17:20N 37°52' E 024°39'2017.5
2014-Oct-26 16:11N 37°58' E 024°15'8 4.9
2014-Oct-26 14:33N 38°00' E 024°05'1918.9
2014-Oct-26 13:33N 37°54' E 024°28'2713.3
2014-Oct-26 11:33N 37°40' E 024°56'1413.7
2014-Oct-26 10:33N 37°31' E 025°10'9 8.6
2014-Oct-26 09:33N 37°28' E 025°20'0 0.0
2014-Oct-26 08:33N 37°28' E 025°20'0 0.0
2014-Oct-26 07:33N 37°28' E 025°20'0 0.0
2014-Oct-26 06:33N 37°28' E 025°20'0 0.0
2014-Oct-26 05:33N 37°28' E 025°20'0 0.0
2014-Oct-26 04:33N 37°28' E 025°20'0 0.0
2014-Oct-26 03:33N 37°28' E 025°20'0 0.0
2014-Oct-26 02:33N 37°28' E 025°20'0 0.0
2014-Oct-26 01:33N 37°28' E 025°20'0 0.0
2014-Oct-26 00:33N 37°28' E 025°20'0 0.0
2014-Oct-25 23:33N 37°28' E 025°20'0 0.0
2014-Oct-25 22:33N 37°28' E 025°20'0 0.0
2014-Oct-25 21:33N 37°28' E 025°20'0 0.0
2014-Oct-25 20:33N 37°28' E 025°20'0 0.0
2014-Oct-25 19:33N 37°28' E 025°20'9 9.3
2014-Oct-25 18:34N 37°32' E 025°09'1515.4
2014-Oct-25 17:33N 37°42' E 024°54'1612.4
2014-Oct-25 16:15N 37°52' E 024°39'2018.7
2014-Oct-25 15:13N 37°58' E 024°15'3 1.7
2014-Oct-25 13:24N 37°59' E 024°11'1518.0
2014-Oct-25 12:33N 37°54' E 024°30'2814.0
2014-Oct-25 10:33N 37°37' E 024°58'1111.5
2014-Oct-25 09:34N 37°31' E 025°10'8 8.2
2014-Oct-25 08:33N 37°28' E 025°20'0 0.0
2014-Oct-25 07:33N 37°28' E 025°20'0 0.0
2014-Oct-25 06:33N 37°28' E 025°20'0 0.0
2014-Oct-25 05:33N 37°28' E 025°20'0 0.0
2014-Oct-25 04:33N 37°28' E 025°20'0 0.0
2014-Oct-25 03:33N 37°28' E 025°20'0 0.0
2014-Oct-25 02:33N 37°28' E 025°20'0 0.0
2014-Oct-25 01:33N 37°28' E 025°20'0 0.0
2014-Oct-25 00:33N 37°28' E 025°20'0 0.0
2014-Oct-24 23:33N 37°28' E 025°20'0 0.0
2014-Oct-24 22:33N 37°28' E 025°20'0 0.0
2014-Oct-24 21:33N 37°28' E 025°20'0 0.0
2014-Oct-24 20:33N 37°28' E 025°20'8 7.8
2014-Oct-24 19:33N 37°31' E 025°11'9 8.7
2014-Oct-24 18:34N 37°35' E 025°01'1817.3
2014-Oct-24 17:32N 37°48' E 024°46'10 9.3
2014-Oct-24 16:28N 37°53' E 024°35'1717.2
2014-Oct-24 15:28N 37°58' E 024°14'11 1.8
2014-Oct-24 09:18N 38°01' E 024°01'1317.2
2014-Oct-24 08:33N 37°57' E 024°16'3114.5
2014-Oct-24 06:26N 37°43' E 024°51'1618.7
2014-Oct-24 05:33N 37°33' E 025°07'1111.2
2014-Oct-24 04:33N 37°28' E 025°20'0 0.0
2014-Oct-24 03:33N 37°28' E 025°20'0 0.0
2014-Oct-24 02:33N 37°28' E 025°20'0 0.0
2014-Oct-24 01:33N 37°28' E 025°20'0 0.0
2014-Oct-24 00:33N 37°28' E 025°20'0 0.0
2014-Oct-23 23:33N 37°28' E 025°20'0 0.0
2014-Oct-23 22:33N 37°28' E 025°20'0 0.0
2014-Oct-23 21:33N 37°28' E 025°20'0 0.0
2014-Oct-23 20:33N 37°28' E 025°20'0 0.0
2014-Oct-23 19:33N 37°28' E 025°20'9 9.0
2014-Oct-23 18:33N 37°32' E 025°10'1717.2
2014-Oct-23 17:34N 37°42' E 024°52'1711.8
2014-Oct-23 16:07N 37°52' E 024°35'1818.2
2014-Oct-23 15:09N 37°58' E 024°13'11 1.9
2014-Oct-23 09:34N 38°01' E 024°01'2017.4
2014-Oct-23 08:23N 37°54' E 024°25'2412.6
2014-Oct-23 06:31N 37°43' E 024°51'1718.2
2014-Oct-23 05:33N 37°32' E 025°09'10 9.7
2014-Oct-23 04:33N 37°28' E 025°20'0 0.0
2014-Oct-23 03:33N 37°28' E 025°20'0 0.0
2014-Oct-23 02:33N 37°28' E 025°20'0 0.0
2014-Oct-23 01:33N 37°28' E 025°20'0 0.0
2014-Oct-23 00:33N 37°28' E 025°20'0 0.0
2014-Oct-22 23:33N 37°28' E 025°20'0 0.0
2014-Oct-22 22:33N 37°28' E 025°20'0 0.0
2014-Oct-22 21:33N 37°28' E 025°20'0 0.0
2014-Oct-22 20:33N 37°28' E 025°20'0 0.0
2014-Oct-22 19:33N 37°28' E 025°20'9 9.0
2014-Oct-22 18:33N 37°32' E 025°10'1817.4
2014-Oct-22 17:31N 37°43' E 024°52'1411.5
2014-Oct-22 16:20N 37°52' E 024°39'31 4.5
2014-Oct-22 09:20N 38°01' E 024°01'4815.5
2014-Oct-22 06:16N 37°41' E 024°55'1318.4
2014-Oct-22 05:33N 37°32' E 025°08'1010.3
2014-Oct-22 04:33N 37°28' E 025°20'0 0.0
2014-Oct-22 03:33N 37°28' E 025°20'0 0.0
2014-Oct-22 02:33N 37°28' E 025°20'0 0.0
2014-Oct-22 01:33N 37°28' E 025°20'0 0.0
2014-Oct-22 00:33N 37°28' E 025°20'0 0.0
2014-Oct-21 23:33N 37°28' E 025°20'0 0.0
2014-Oct-21 22:33N 37°28' E 025°20'0 0.0
2014-Oct-21 21:33N 37°28' E 025°20'0 0.0
2014-Oct-21 20:33N 37°28' E 025°20'0 0.0
2014-Oct-21 19:33N 37°28' E 025°20'9 9.3
2014-Oct-21 18:34N 37°32' E 025°09'1615.9
2014-Oct-21 17:33N 37°42' E 024°53'1312.0
2014-Oct-21 16:29N 37°52' E 024°43'1818.3
2014-Oct-21 15:29N 37°56' E 024°21'17 3.8
2014-Oct-21 11:09N 38°01' E 024°01'0 0.1
2014-Oct-21 09:17N 38°01' E 024°01'1417.6
2014-Oct-21 08:29N 37°57' E 024°18'1818.5
2014-Oct-21 07:31N 37°53' E 024°40'1111.5
2014-Oct-21 06:32N 37°45' E 024°50'1818.7
2014-Oct-21 05:33N 37°33' E 025°07'1111.1
2014-Oct-21 04:33N 37°28' E 025°20'0 0.0
2014-Oct-21 03:33N 37°28' E 025°20'0 0.0
2014-Oct-21 02:33N 37°28' E 025°20'0 0.0
2014-Oct-21 01:33N 37°28' E 025°20'0 0.0
2014-Oct-21 00:33N 37°28' E 025°20'0 0.0
2014-Oct-20 23:33N 37°28' E 025°20'0 0.0
2014-Oct-20 22:33N 37°28' E 025°20'0 0.0
2014-Oct-20 21:33N 37°28' E 025°20'0 0.0
2014-Oct-20 20:33N 37°28' E 025°20'0 0.0
2014-Oct-20 19:33N 37°28' E 025°20'9 9.3
2014-Oct-20 18:33N 37°32' E 025°09'1916.2
2014-Oct-20 17:23N 37°44' E 024°51'1010.9
2014-Oct-20 16:28N 37°52' E 024°43'34 4.8
2014-Oct-20 09:19N 38°01' E 024°01'1818.6
2014-Oct-20 08:20N 37°56' E 024°23'2513.5
2014-Oct-20 06:30N 37°44' E 024°51'1718.4
2014-Oct-20 05:33N 37°33' E 025°07'1111.1
2014-Oct-20 04:33N 37°28' E 025°20'0 0.0
2014-Oct-20 03:33N 37°28' E 025°20'0 0.0
2014-Oct-20 02:24N 37°28' E 025°20'0 0.0
2014-Oct-20 01:31N 37°28' E 025°20'0 0.0
2014-Oct-20 00:28N 37°28' E 025°20'0 0.0
2014-Oct-19 23:32N 37°28' E 025°20'0 0.0
2014-Oct-19 22:33N 37°28' E 025°20'0 0.0
2014-Oct-19 21:33N 37°28' E 025°20'0 0.0
2014-Oct-19 20:33N 37°28' E 025°20'0 0.0
2014-Oct-19 19:33N 37°28' E 025°20'9 9.3
2014-Oct-19 18:33N 37°32' E 025°09'3514.4
2014-Oct-19 16:08N 37°53' E 024°34'1717.8
2014-Oct-19 15:11N 37°58' E 024°13'  

Dump ship's entire track history